Simultaneous Nadir Overpasses (SNOs) Predictions

Prediction of SNOs between GOES-14 and NOAA-20 Satellite Orbit:

Table of predicted SNOs for the next 14.0 days since TLE Epoch: 6/29/2024
Index Date Time (GOES-14) GOES-14 Lat,Lon NOAA-20 Lat,Lon Distance(km) Time Diff (sec)
1 06/29/2024 08:38:43 -0.12,-108.53 -0.21,-108.22 35.60 80
2 07/01/2024 20:39:17 0.14,-108.50 0.05,-109.01 57.88 80
3 07/02/2024 20:23:12 0.13,-108.50 1.03,-104.48 458.32 80
4 07/04/2024 08:42:21 -0.17,-108.52 0.11,-109.77 141.64 80
5 07/05/2024 08:26:17 -0.15,-108.52 -0.87,-105.23 374.04 80
6 07/06/2024 20:45:35 0.19,-108.48 -0.26,-110.56 236.34 80
7 07/07/2024 20:29:31 0.17,-108.48 0.73,-106.03 280.08 80
8 07/09/2024 08:48:40 -0.21,-108.52 0.40,-111.31 318.26 80
9 07/10/2024 08:32:36 -0.19,-108.52 -0.60,-106.78 197.95 80
10 07/11/2024 20:51:53 0.23,-108.48 -0.59,-112.10 412.73 80
11 07/12/2024 20:35:49 0.21,-108.48 0.41,-107.56 103.98 80
